Location: Nitra
(48.3167°N, 18.0833°E)
Time: 08:37:34
(UTC+02:00)

STARLINK-1750 - Pass Details

Date: 24 September 2020
Orbit: 378 x 380 km, 53.0° (Epoch: 24 October)

Event Time Altitude Azimuth Distance (km) Brightness Sun altitude
Exits shadow 03:34:56 13° 56° (ENE) 1,223 6.2 -29.2°
Drops below altitude 10° 03:35:24 10° 60° (ENE) 1,405 6.6 -29.1°
Sets 03:37:26 0° 68° (ENE) 2,215 7.8 -28.8°
